Marion, IN

6:00 AM EST on January 21, 2017 (GMT -0500)
Marion

Weather History for KMZZ - July, 2013

Change the Weather History Date:

Thursday, July 11, 2013

  Actual Average (KMIE) Record (KMIE)
Temperature  
Mean Temperature 66 °F -  
Max Temperature 75 °F 85 °F 100 °F (1988)
Min Temperature 57 °F 64 °F 51 °F (1996)
Cooling Degree Days 1    
Growing Degree Days 16 (Base 50)    
Moisture  
Dew Point 56 °F    
Average Humidity 67    
Maximum Humidity 91    
Minimum Humidity 46    
Precipitation  
Precipitation 0.00 in - - ()
Sea Level Pressure  
Sea Level Pressure 30.05 in    
Wind  
Wind Speed 5 mph (NNE)    
Max Wind Speed 13 mph    
Max Gust Speed 20 mph    
Visibility 9 miles    
Events      
Averages and records for this station are not official NWS values.
T = Trace of Precipitation, MM = Missing Value Source: NWS Daily Summary

Daily Weather History Graph

Daily Weather History Graph

Search for Another Location

Airport or City:

Trip Planner

Search our weather history database for the weather conditions in past years. The results will help you decide how hot, cold, wet, or windy it might be!

Date:

Astronomy

Jul. 11, 2013 Rise Set
Actual Time 6:22 AM EDT 9:13 PM EDT
Civil Twilight 5:49 AM EDT 9:46 PM EDT
Nautical Twilight 5:08 AM EDT 10:27 PM EDT
Astronomical Twilight 4:21 AM EDT 11:14 PM EDT
Moon 9:41 AM EDT (7/11) 10:53 PM EDT (7/11)
Length of Visible Light 15h 56m
Length of Day
14h 51m
Waxing Crescent, 10% of the Moon is Illuminated
Jul 11
Waxing Crescent
Jul 15
First Quarter
Jul 22
Full
Jul 29
Last Quarter
Aug 6
New

Hourly Weather History & Observations

Time (EDT) Temp. Dew Point Humidity Pressure Visibility Wind Dir Wind Speed Gust Speed Precip Events Conditions
12:15 AM 65.1 °F 60.4 °F 85% 30.00 in 10.0 mi North 3.5 mph - N/A   Clear
12:35 AM 65.3 °F 59.2 °F 81% 29.99 in 10.0 mi NNW 4.6 mph - N/A   Clear
12:55 AM 65.1 °F 57.9 °F 77% 29.99 in 10.0 mi NNW 4.6 mph - N/A   Clear
1:15 AM 64.4 °F 57.9 °F 79% 29.99 in 10.0 mi North 5.8 mph - N/A   Clear
1:35 AM 64.6 °F 56.8 °F 76% 29.99 in 10.0 mi NNW 5.8 mph - N/A   Clear
1:55 AM 64.0 °F 55.8 °F 74% 30.00 in 10.0 mi Calm Calm - N/A   Clear
2:15 AM 62.8 °F 55.9 °F 78% 30.00 in 10.0 mi NNW 3.5 mph - N/A   Clear
2:35 AM 62.4 °F 55.6 °F 78% 30.00 in 7.0 mi North 3.5 mph - N/A   Clear
2:55 AM 61.7 °F 55.6 °F 80% 30.00 in 10.0 mi Calm Calm - N/A   Clear
3:15 AM 61.7 °F 55.4 °F 80% 30.00 in 10.0 mi NNW 4.6 mph - N/A   Clear
3:35 AM 61.3 °F 55.0 °F 80% 30.00 in 10.0 mi North 3.5 mph - N/A   Clear
3:55 AM 60.8 °F 54.9 °F 81% 30.01 in 10.0 mi North 4.6 mph - N/A   Clear
4:15 AM 60.4 °F 54.9 °F 82% 30.01 in 10.0 mi North 4.6 mph - N/A   Clear
4:35 AM 60.3 °F 54.9 °F 82% 30.02 in 10.0 mi North 3.5 mph - N/A   Clear
4:55 AM 59.7 °F 54.9 °F 84% 30.01 in 10.0 mi North 4.6 mph - N/A   Clear
5:15 AM 59.2 °F 54.9 °F 86% 30.01 in 10.0 mi North 3.5 mph - N/A   Clear
5:35 AM 59.0 °F 54.9 °F 86% 30.02 in 10.0 mi Calm Calm - N/A   Clear
5:55 AM 58.5 °F 54.7 °F 87% 30.03 in 10.0 mi Calm Calm - N/A   Clear
6:15 AM 58.3 °F 54.7 °F 88% 30.03 in 7.0 mi Calm Calm - N/A   Scattered Clouds
6:35 AM 57.4 °F 54.5 °F 90% 30.04 in 7.0 mi Calm Calm - N/A   Clear
6:55 AM 57.4 °F 54.9 °F 91% 30.04 in 7.0 mi Calm Calm - N/A   Clear
7:15 AM 58.8 °F 55.2 °F 88% 30.04 in 10.0 mi North 4.6 mph - N/A   Clear
7:35 AM 59.9 °F 55.2 °F 84% 30.05 in 7.0 mi North 4.6 mph - N/A   Clear
7:55 AM 60.8 °F 55.9 °F 84% 30.05 in 7.0 mi North 5.8 mph - N/A   Clear
8:15 AM 63.0 °F 56.1 °F 78% 30.05 in 7.0 mi NNE 5.8 mph - N/A   Clear
8:35 AM 64.6 °F 55.8 °F 73% 30.06 in 7.0 mi NNE 8.1 mph - N/A   Clear
8:55 AM 65.8 °F 55.9 °F 70% 30.06 in 7.0 mi NNE 8.1 mph - N/A   Clear
9:15 AM 67.3 °F 56.5 °F 68% 30.06 in 7.0 mi NE 8.1 mph - N/A   Clear
9:35 AM 68.4 °F 56.8 °F 67% 30.06 in 7.0 mi NE 8.1 mph - N/A   Clear
9:55 AM 68.9 °F 56.7 °F 65% 30.06 in 10.0 mi NE 9.2 mph - N/A   Clear
10:15 AM 69.6 °F 56.8 °F 64% 30.07 in 10.0 mi NE 11.5 mph 17.3 mph N/A   Clear
10:35 AM 70.3 °F 57.0 °F 63% 30.07 in 10.0 mi NE 11.5 mph 16.1 mph N/A   Clear
10:55 AM 71.2 °F 56.8 °F 60% 30.07 in 10.0 mi NNE 12.7 mph 17.3 mph N/A   Clear
11:15 AM 71.8 °F 56.7 °F 59% 30.08 in 10.0 mi NE 9.2 mph - N/A   Clear
11:35 AM 72.1 °F 56.5 °F 58% 30.08 in 7.0 mi NNE 11.5 mph 19.6 mph N/A   Scattered Clouds
11:55 AM 72.5 °F 56.1 °F 56% 30.08 in 10.0 mi NE 9.2 mph 19.6 mph N/A   Scattered Clouds
12:15 PM 73.0 °F 55.6 °F 54% 30.08 in 10.0 mi NE 11.5 mph 16.1 mph N/A   Mostly Cloudy
12:35 PM 73.0 °F 55.8 °F 55% 30.09 in 10.0 mi NNE 10.4 mph 16.1 mph N/A   Mostly Cloudy
12:55 PM 72.7 °F 55.4 °F 55% 30.08 in 7.0 mi NE 11.5 mph 18.4 mph N/A   Scattered Clouds
1:15 PM 73.4 °F 55.8 °F 54% 30.08 in 10.0 mi NNE 8.1 mph - N/A   Scattered Clouds
1:35 PM 73.9 °F 55.4 °F 52% 30.09 in 10.0 mi NNE 11.5 mph 16.1 mph N/A   Scattered Clouds
1:55 PM 74.1 °F 55.4 °F 52% 30.08 in 10.0 mi North 6.9 mph - N/A   Mostly Cloudy
2:15 PM 73.4 °F 55.8 °F 54% 30.08 in 10.0 mi NNE 9.2 mph - N/A   Scattered Clouds
2:35 PM 74.7 °F 55.9 °F 52% 30.08 in 10.0 mi NNE 10.4 mph - N/A   Scattered Clouds
2:55 PM 75.2 °F 55.0 °F 49% 30.08 in 7.0 mi NNE 9.2 mph - N/A   Scattered Clouds
3:15 PM 74.7 °F 55.0 °F 50% 30.08 in 10.0 mi NNE 8.1 mph 16.1 mph N/A   Mostly Cloudy
3:35 PM 75.4 °F 54.5 °F 48% 30.08 in 10.0 mi NNE 9.2 mph - N/A   Scattered Clouds
3:55 PM 75.0 °F 53.8 °F 47% 30.08 in 7.0 mi NE 8.1 mph - N/A   Scattered Clouds
4:15 PM 75.4 °F 53.8 °F 47% 30.08 in 10.0 mi North 9.2 mph - N/A   Scattered Clouds
4:35 PM 75.4 °F 53.1 °F 46% 30.07 in 10.0 mi NE 6.9 mph - N/A   Scattered Clouds
4:55 PM 75.4 °F 54.3 °F 48% 30.07 in 10.0 mi NNE 8.1 mph - N/A   Mostly Cloudy
5:15 PM 74.7 °F 53.6 °F 48% 30.07 in 7.0 mi NE 6.9 mph - N/A   Mostly Cloudy
5:35 PM 75.4 °F 53.6 °F 47% 30.06 in 10.0 mi NE 9.2 mph - N/A   Scattered Clouds
5:55 PM 74.3 °F 54.0 °F 49% 30.06 in 10.0 mi NE 6.9 mph - N/A   Scattered Clouds
6:15 PM 75.0 °F 54.5 °F 49% 30.06 in 10.0 mi NNE 9.2 mph - N/A   Scattered Clouds
6:35 PM 75.6 °F 54.3 °F 48% 30.06 in 10.0 mi North 5.8 mph - N/A   Scattered Clouds
6:55 PM 75.2 °F 54.1 °F 48% 30.06 in 10.0 mi North 6.9 mph - N/A   Scattered Clouds
7:15 PM 75.2 °F 54.7 °F 49% 30.05 in 10.0 mi NE 5.8 mph - N/A   Scattered Clouds
7:35 PM 74.7 °F 54.0 °F 48% 30.05 in 10.0 mi NNE 5.8 mph - N/A   Scattered Clouds
7:55 PM 73.9 °F 54.3 °F 50% 30.05 in 10.0 mi NNE 5.8 mph - N/A   Clear
8:15 PM 73.0 °F 54.1 °F 51% 30.05 in 10.0 mi North 3.5 mph - N/A   Clear
8:35 PM 71.6 °F 54.7 °F 55% 30.05 in 7.0 mi NNE 3.5 mph - N/A   Clear
8:55 PM 69.6 °F 56.7 °F 63% 30.05 in 7.0 mi Calm Calm - N/A   Clear
9:15 PM 67.3 °F 58.6 °F 74% 30.04 in 7.0 mi Calm Calm - N/A   Clear
9:35 PM 65.7 °F 59.5 °F 81% 30.04 in 10.0 mi Calm Calm - N/A   Clear
9:55 PM 64.9 °F 59.0 °F 81% 30.05 in 10.0 mi NNW 3.5 mph - N/A   Clear
10:15 PM 66.7 °F 56.7 °F 70% 30.06 in 10.0 mi North 5.8 mph - N/A   Clear
10:35 PM 65.3 °F 57.0 °F 75% 30.06 in 10.0 mi Calm Calm - N/A   Clear
10:55 PM 63.5 °F 57.2 °F 80% 30.06 in 10.0 mi North 3.5 mph - N/A   Clear
11:15 PM 63.9 °F 56.1 °F 76% 30.06 in 10.0 mi Calm Calm - N/A   Clear
11:35 PM 63.7 °F 55.6 °F 75% 30.06 in 10.0 mi Calm Calm - N/A   Clear
11:55 PM 63.5 °F 55.4 °F 75% 30.07 in 10.0 mi North 3.5 mph - N/A   Clear